This is the latest recevied weather packets stored in our database for station/object KF4CQ. If no packets are shown the sender has not sent any weather packets the latest 10 day(s).
| Time | Temp. | Humidity | Pressure | Rain* | Wind** | Luminosity | Snow |
|---|---|---|---|---|---|---|---|
| 1778093942 | 34.44° C | 45% | 1016.8 hPa | 0 mm | - | 551 W/m² | - |
| 1778093639 | 33.89° C | 46% | 1017 hPa | 0 mm | - | 230 W/m² | - |
| 1778093336 | 33.89° C | 48% | 1016.8 hPa | 0 mm | - | 207 W/m² | - |
| 1778093033 | 33.89° C | 46% | 1017 hPa | 0 mm | - | 338 W/m² | - |
| 1778092730 | 33.33° C | 48% | 1016.9 hPa | 0 mm | - | 756 W/m² | - |
| 1778092425 | 32.78° C | 48% | 1017 hPa | 0 mm | - | 783 W/m² | - |
| 1778092123 | 33.33° C | 47% | 1016.9 hPa | 0 mm | - | 156 W/m² | - |
| 1778091820 | 33.89° C | 45% | 1017.1 hPa | 0 mm | - | 756 W/m² | - |
| 1778091517 | 33.33° C | 48% | 1017.2 hPa | 0 mm | - | 275 W/m² | - |
| 1778091215 | 33.89° C | 48% | 1017.2 hPa | 0 mm | - | 725 W/m² | - |
| 1778090912 | 33.33° C | 48% | 1017.4 hPa | 0 mm | - | 801 W/m² | - |
| 1778090608 | 33.33° C | 49% | 1017.4 hPa | 0 mm | - | 751 W/m² | - |
| 1778090304 | 32.78° C | 49% | 1017.5 hPa | 0 mm | - | 793 W/m² | - |
| 1778090001 | 32.78° C | 49% | 1017.5 hPa | 0 mm | - | 731 W/m² | - |
| 1778089698 | 32.78° C | 49% | 1017.6 hPa | 0 mm | - | 815 W/m² | - |
| 1778089395 | 32.78° C | 50% | 1017.5 hPa | 0 mm | - | 710 W/m² | - |
| 1778089093 | 32.78° C | 49% | 1017.6 hPa | 0 mm | - | 782 W/m² | - |
| 1778088790 | 32.22° C | 51% | 1017.7 hPa | 0 mm | - | 823 W/m² | - |
| 1778088487 | 32.78° C | 50% | 1017.8 hPa | 0 mm | - | 824 W/m² | - |
| 1778088183 | 32.78° C | 49% | 1017.7 hPa | 0 mm | - | 776 W/m² | - |
| 1778087881 | 32.78° C | 50% | 1017.8 hPa | 0 mm | - | 815 W/m² | - |
| 1778087577 | 32.22° C | 51% | 1017.7 hPa | 0 mm | - | 798 W/m² | - |
| 1778087275 | 32.78° C | 50% | 1017.9 hPa | 0 mm | - | 750 W/m² | - |
| 1778086972 | 32.22° C | 51% | 1017.9 hPa | 0 mm | - | 739 W/m² | - |
| 1778086670 | 31.67° C | 52% | 1017.9 hPa | 0 mm | - | 747 W/m² | - |
* Rain latest hour (hover to see other rain measurements)
** Current wind speed in m/s (hover to see current wind gust speed)